This is the latest recevied weather packets stored in our database for station/object AB0TJ. If no packets are shown the sender has not sent any weather packets the latest 10 day(s).
| Time | Temp. | Humidity | Pressure | Rain* | Wind** | Luminosity | Snow |
|---|---|---|---|---|---|---|---|
| 1778116572 | 15.56° C | 21% | 1018.5 hPa | 0 mm | - | 60 W/m² | - |
| 1778116084 | 16.11° C | 21% | 1018.6 hPa | 0 mm | - | 78 W/m² | - |
| 1778115539 | 16.67° C | 21% | 1018.3 hPa | 0 mm | - | 103 W/m² | - |
| 1778115040 | 16.67° C | 20% | 1018.3 hPa | 0 mm | - | 125 W/m² | - |
| 1778114473 | 16.67° C | 21% | 1018.4 hPa | 0 mm | - | 154 W/m² | - |
| 1778113948 | 17.22° C | 20% | 1018.2 hPa | 0 mm | - | 181 W/m² | - |
| 1778113434 | 17.22° C | 21% | 1018.2 hPa | 0 mm | - | 209 W/m² | - |
| 1778112864 | 17.22° C | 21% | 1018 hPa | 0 mm | - | 245 W/m² | - |
| 1778112329 | 17.22° C | 21% | 1018.1 hPa | 0 mm | - | 280 W/m² | - |
| 1778111839 | 17.22° C | 22% | 1018.1 hPa | 0 mm | - | 308 W/m² | - |
| 1778111354 | 16.67° C | 22% | 1018 hPa | 0 mm | - | 334 W/m² | - |
| 1778110873 | 16.67° C | 23% | 1018.2 hPa | 0 mm | - | 362 W/m² | - |
| 1778110359 | 16.67° C | 23% | 1018 hPa | 0 mm | - | 388 W/m² | - |
| 1778109869 | 16.67° C | 23% | 1017.8 hPa | 0 mm | - | 412 W/m² | - |
| 1778109345 | 16.67° C | 23% | 1017.9 hPa | 0 mm | - | 443 W/m² | - |
| 1778108848 | 16.67° C | 22% | 1017.7 hPa | 0 mm | - | 469 W/m² | - |
| 1778108264 | 16.11° C | 21% | 1017.9 hPa | 0 mm | - | 498 W/m² | - |
| 1778107734 | 16.11° C | 22% | 1017.9 hPa | 0 mm | - | 522 W/m² | - |
| 1778107169 | 16.67° C | 21% | 1017.9 hPa | 0 mm | - | 564 W/m² | - |
| 1778106629 | 16.11° C | 21% | 1017.9 hPa | 0 mm | - | 591 W/m² | - |
| 1778106113 | 16.11° C | 21% | 1017.8 hPa | 0 mm | - | 606 W/m² | - |
| 1778105614 | 15.56° C | 23% | 1017.9 hPa | 0 mm | - | 613 W/m² | - |
| 1778105034 | 15.56° C | 22% | 1018.2 hPa | 0 mm | - | 637 W/m² | - |
| 1778104449 | 15° C | 23% | 1017.9 hPa | 0 mm | - | 692 W/m² | - |
| 1778103964 | 15° C | 23% | 1018 hPa | 0 mm | - | 388 W/m² | - |
* Rain latest hour (hover to see other rain measurements)
** Current wind speed in m/s (hover to see current wind gust speed)